| time (UTC) | temp F | wind direction | speed knots | gust knots | rain 1hr in | rain 24hr in | rain mn in | humidity % | barometer mb |
| 20260502122146 | 68 | 180 | 4.3 | 7.0 | 0.00 | 0.00 | 0.00 | 78 | 1018.7 |
| 20260502121145 | 68 | 180 | 6.1 | 7.0 | 0.00 | 0.00 | 0.00 | 76 | 1018.7 |
| 20260502120145 | 69 | 180 | 2.6 | 4.3 | 0.00 | 0.00 | 0.00 | 75 | 1018.7 |
| 20260502115146 | 69 | 90 | 2.6 | 6.1 | 0.00 | 0.00 | 0.00 | 75 | 1018.7 |
| 20260502114146 | 69 | 90 | 2.6 | 6.1 | 0.00 | 0.00 | 0.00 | 75 | 1018.7 |
| 20260502113145 | 69 | 90 | 2.6 | 6.1 | 0.00 | 0.00 | 0.00 | 75 | 1018.7 |
| 20260502112145 | 69 | 180 | 6.1 | 7.8 | 0.00 | 0.00 | 0.00 | 76 | 1019.7 |
| 20260502111145 | 69 | 90 | 4.3 | 7.0 | 0.00 | 0.00 | 0.00 | 77 | 1019.7 |
| 20260502110146 | 69 | 90 | 2.6 | 4.3 | 0.00 | 0.00 | 0.00 | 79 | 1018.7 |
| 20260502105146 | 69 | 90 | 4.3 | 7.0 | 0.00 | 0.00 | 0.00 | 79 | 1018.7 |
| 20260502104145 | 69 | 90 | 4.3 | 8.7 | 0.00 | 0.00 | 0.00 | 77 | 1018.7 |
| 20260502103144 | 69 | 90 | 8.7 | 8.7 | 0.00 | 0.00 | 0.00 | 79 | 1019.7 |
| 20260502102146 | 68 | 90 | 4.3 | 8.7 | 0.00 | 0.00 | 0.00 | 81 | 1019.7 |
| 20260502101144 | 68 | 90 | 5.2 | 8.7 | 0.00 | 0.00 | 0.00 | 81 | 1019.7 |
| 20260502100146 | 69 | 90 | 6.1 | 7.0 | 0.00 | 0.00 | 0.00 | 81 | 1019.7 |
| 20260502071143 | 67 | 0 | 2.6 | 3.5 | 0.00 | 0.00 | 0.00 | 79 | 1019.7 |
| 20260501225107 | 63 | 0 | 3.5 | 4.3 | 0.00 | 0.00 | 0.00 | 87 | 1020.7 |
| 20260501224105 | 63 | 0 | 2.6 | 4.3 | 0.00 | 0.00 | 0.00 | 86 | 1020.7 |
| 20260501223105 | 63 | 0 | 3.5 | 3.5 | 0.00 | 0.00 | 0.00 | 86 | 1020.7 |
| 20260501222105 | 63 | 0 | 2.6 | 4.3 | 0.00 | 0.00 | 0.00 | 86 | 1020.7 |
| 20260501221105 | 63 | 0 | 3.5 | 4.3 | 0.00 | 0.00 | 0.00 | 86 | 1020.7 |
| 20260501220105 | 64 | 0 | 2.6 | 3.5 | 0.00 | 0.00 | 0.00 | 87 | 1020.7 |